Location: Boussac
(44.2782°N, 2.3665°E)
Time: 11:17:32
(UTC+00:00)

Cosmos 1763 Rocket - Pass Details

Date: 15 May 2026
Orbit: 728 x 773 km, 74.0° (Epoch: 8 June)

Event Time Altitude Azimuth Distance (km) Brightness Sun altitude
Exits shadow 21:10:52 30° 148° (SSE) 1,354 4.2 -17.4°
Maximum altitude 21:12:44 41° 103° (ESE) 1,107 3.9 -17.6°
Drops below altitude 10° 21:17:40 10° 34° (NE) 2,321 6.2 -18.1°
Sets 21:20:09 0° 28° (NNE) 3,248 7.1 -18.4°
